Weather History for KLAN - November, 2012

Change the Weather History Date:

Wednesday, November 7, 2012

  Actual Average Record
Temperature  
Mean Temperature 37 °F 43 °F  
Max Temperature 47 °F 51 °F 72 °F (1895)
Min Temperature 26 °F 35 °F 8 °F (1877)
Degree Days  
Heating Degree Days 28 22  
Month to date heating degree days 209 147  
Since 1 July heating degree days 831 797  
Cooling Degree Days 0 0  
Month to date cooling degree days 0 0  
Year to date cooling degree days 940 625  
Moisture  
Dew Point 27 °F    
Average Humidity 69    
Maximum Humidity 85    
Minimum Humidity 53    
Precipitation  
Precipitation 0.00 in 0.09 in 1.08 in (1996)
Month to date precipitation T 0.66  
Year to date precipitation 26.05 27.78  
Snow  
Snow 0.00 in 0.00 in 4.70 in (1951)
Month to date snowfall 0.0 0.3  
Since 1 July snowfall 0.1 0.7  
Since 1 September snowfall 0.1 0.7  
Snow Depth 0.00 in    
Sea Level Pressure  
Sea Level Pressure 30.10 in    
Wind  
Wind Speed 5 mph (NE)    
Max Wind Speed 12 mph    
Max Gust Speed 14 mph    
Visibility 9 miles    
Events      
T = Trace of Precipitation, MM = Missing Value Source: NWS Daily Summary

Daily Weather History Graph

Daily Weather History Graph

Search for Another Location

Airport or City:

Trip Planner

Search our weather history database for the weather conditions in past years. The results will help you decide how hot, cold, wet, or windy it might be!

Date:

Astronomy

Nov. 07, 2012 Rise Set
Actual Time 7:20 AM EST 5:22 PM EST
Civil Twilight 6:50 AM EST 5:52 PM EST
Nautical Twilight 6:16 AM EST 6:26 PM EST
Astronomical Twilight 5:43 AM EST 6:59 PM EST
Moon 12:04 AM EST (11/7) 1:40 PM EST (11/7)
Length of Visible Light 11h 02m
Length of Day
10h 02m
Last Quarter, 43% of the Moon is Illuminated
Nov 7
Last Quarter
Nov 13
New
Nov 20
First Quarter
Nov 28
Full
Dec 6
Last Quarter

Hourly Weather History & Observations

Time (EST) Temp. Windchill Dew Point Humidity Pressure Visibility Wind Dir Wind Speed Gust Speed Precip Events Conditions
12:53 AM 34.0 °F 29.8 °F 27.0 °F 75% 30.00 in 10.0 mi East 4.6 mph - N/A   Overcast
1:53 AM 32.0 °F 27.5 °F 27.0 °F 82% 30.02 in 8.0 mi East 4.6 mph - N/A   Overcast
2:53 AM 30.9 °F 25.2 °F 27.0 °F 85% 30.02 in 7.0 mi East 5.8 mph - N/A   Overcast
3:53 AM 30.0 °F 26.5 °F 26.1 °F 85% 30.02 in 9.0 mi East 3.5 mph - N/A   Overcast
4:53 AM 28.0 °F 22.8 °F 24.1 °F 85% 30.04 in 10.0 mi ENE 4.6 mph - N/A   Scattered Clouds
5:53 AM 28.0 °F 22.8 °F 23.0 °F 81% 30.05 in 10.0 mi ENE 4.6 mph - N/A   Partly Cloudy
6:53 AM 27.0 °F 23.0 °F 21.9 °F 81% 30.07 in 10.0 mi NE 3.5 mph - N/A   Partly Cloudy
7:53 AM 27.0 °F 23.0 °F 21.9 °F 81% 30.09 in 8.0 mi ENE 3.5 mph - N/A   Scattered Clouds
8:53 AM 32.0 °F 26.4 °F 26.1 °F 79% 30.09 in 7.0 mi ENE 5.8 mph - N/A   Clear
9:53 AM 37.0 °F 31.0 °F 28.0 °F 70% 30.10 in 8.0 mi ENE 8.1 mph - N/A   Clear
10:53 AM 41.0 °F 37.1 °F 28.0 °F 60% 30.11 in 10.0 mi NE 5.8 mph - N/A   Clear
11:53 AM 43.0 °F 37.2 °F 28.9 °F 58% 30.12 in 10.0 mi NE 10.4 mph - N/A   Partly Cloudy
12:53 PM 44.1 °F 39.5 °F 30.0 °F 58% 30.10 in 10.0 mi NE 8.1 mph - N/A   Partly Cloudy
1:53 PM 45.0 °F 42.6 °F 30.0 °F 56% 30.09 in 10.0 mi NNW 4.6 mph - N/A   Partly Cloudy
2:53 PM 46.0 °F 43.1 °F 30.0 °F 54% 30.08 in 10.0 mi ENE 5.8 mph - N/A   Partly Cloudy
3:53 PM 45.0 °F 41.8 °F 30.0 °F 56% 30.09 in 10.0 mi ENE 5.8 mph - N/A   Partly Cloudy
4:53 PM 43.0 °F 38.8 °F 28.9 °F 58% 30.12 in 10.0 mi NNE 6.9 mph - N/A   Partly Cloudy
5:53 PM 41.0 °F 39.0 °F 28.9 °F 62% 30.14 in 10.0 mi NNE 3.5 mph - N/A   Partly Cloudy
6:53 PM 36.0 °F 33.3 °F 28.0 °F 73% 30.14 in 10.0 mi ENE 3.5 mph - N/A   Clear
7:53 PM 33.1 °F 26.9 °F 27.0 °F 78% 30.17 in 10.0 mi NE 6.9 mph - N/A   Clear
8:53 PM 34.0 °F 29.8 °F 28.0 °F 79% 30.18 in 10.0 mi NNE 4.6 mph - N/A   Clear
9:53 PM 33.1 °F 28.7 °F 27.0 °F 78% 30.18 in 9.0 mi NE 4.6 mph - N/A   Clear
10:53 PM 32.0 °F - 27.0 °F 82% 30.19 in 9.0 mi Calm Calm - N/A   Clear
11:53 PM 30.9 °F - 27.0 °F 85% 30.19 in 7.0 mi Calm Calm - N/A   Clear